Terminal Aerodrome Forecast
Issued by NWS

Home | Current Version | Previous Version | Text Only | Print | Product List | Glossary On
Versions: 1 2 3 4 5 6 7 8 9 10 11 12 13 14 15 16 17
000
FTUS45 KRIW 291400 AAB
TAFWRL
TAF AMD
KWRL 291437Z 2915/3012 34010KT P6SM VCSH BKN010 BKN040
     FM291600 15006KT P6SM SCT050 BKN080
     FM300900 16006KT P6SM SCT080=

USA.gov is the U.S. government's official web portal to all federal, state and local government web resources and services.